User: anonymous   Login
Location: Newark
(13.6797°N, 8.5297°E)
Time: 17:37:56
(UTC+00:00)
Language:

S-56A Canister/Altair - Orbit

View from above orbital plane
View from above orbital plane
View from above satellite
View from above satellite

Ground track
Ground track

The orbit data is extracted from the following two-line orbital elements,

1    82U 61004B   20028.86526603 -.00000039 +00000-0 +12994-4 0  9991
2    82 038.8576 358.9478 1173551 125.0711 246.5765 12.26059917790556
Epoch (UTC): 28 January 2020 20:45:58
Eccentricity: 0.1173551
inclination: 38.8576°
perigee height: 634 km
apogee height: 2498 km
right ascension of ascending node: 358.9478°
argument of perigee: 125.0711°
revolutions per day: 12.26059917
mean anomaly at epoch: 246.5765°
orbit number at epoch: 79055

The dashed part of the orbit path shows where the satellite is in the earth's shadow,  

DLR